Tracking 23582 objects as of 1-Aug-2021
HD Live streaming from Space Station
objects crossing your sky now

AISTECHSAT-2

Track AISTECHSAT-2 now!
10-day predictions


NORAD ID: 43768
Int'l Code: 2018-099L
Perigee: 582.8 km
Apogee: 596.5 km
Inclination: 97.7 °
Period: 96.3 minutes
Semi major axis: 6960 km
RCS: Unknown
Launch date: December 3, 2018
Source: Spain (SPN)
Launch site: AIR FORCE WESTERN TEST RANGE (AFWTR)
aabbcc
Your satellite tracking list
Your tracking list is empty




NASA's NSSDC Master Catalog

Two Line Element Set (TLE):
1 43768U 18099L   21212.41377786  .00000585  00000-0  58695-4 0  9991
2 43768  97.6600 280.9214 0009833 261.0995  98.9113 14.94943499144713
Source of the keplerian elements: AFSPC